#timestamp,LO_Frequency,Hit,StdDev 
1606161615.5,286047001.8,N
1606161635.4,286047003.7,N
1606161655.2,286047002.9,N
1606161675.0,286047005.5,Y
1606161675.9,286047005.5,P
1606161695.8,286047002.4,N
1606161715.6,286047002.3,N
1606161735.4,286047002.4,N
1606161755.3,286047000.2,N
1606161775.1,286047002.4,N
1606161795.8,286047004.4,Y
1606161815.7,286047000.3,P
1606161835.5,286047002.3,N
1606161855.3,286047001.7,N
1606161875.2,286047001.4,N
1606161895.0,286047003.1,Y
1606161895.9,286047003.1,P
1606161915.7,286047001.4,N
1606161935.6,286047004.2,P
1606161955.4,286047003.7,Y
1606161975.2,286046999.7,P
1606161995.1,286046999.7,N
1606161996.0,286046999.7,N
1606162015.8,286047004.4,Y
1606162035.7,286047004.3,P
1606162055.5,286047003.8,N
1606162075.3,286047004.3,N
1606162095.2,286047005.5,Y
1606162115.9,286047002.2,P
1606162135.7,286047000.1,N
1606162155.6,286047002.1,N
1606162175.4,286047001.6,N
1606162195.2,286047004.4,Y
1606162215.1,286047002.6,P
1606162216.0,286047002.6,P
1606162235.8,286047001.5,P
1606162255.6,286047001.3,N
1606162275.5,286047004.8,Y
1606162295.3,286047004.1,P
1606162315.1,286047001.9,N
1606162335.9,286047002.4,N
1606162355.7,286047003.8,Y
1606162375.5,286047004.4,P
1606162395.4,286047002.6,N
1606162415.2,286047003.0,P
1606162435.0,286047005.6,Y
1606162436.0,286047005.6,P
1606162455.8,286047002.7,N
1606162475.6,286047002.4,N
1606162495.5,286046999.9,N
1606162515.3,286047002.0,N
1606162535.1,286047006.0,Y
1606162555.9,286047000.1,P
1606162575.7,286047001.6,N
1606162595.5,286047001.9,N
1606162615.4,286047002.1,N
1606162635.2,286047002.7,Y
1606162655.0,286047000.7,P
1606162655.9,286047000.7,N
1606162675.8,286047000.1,N
1606162695.6,286046999.7,N
1606162715.4,286046999.9,N
1606162735.3,286047002.0,N
1606162755.1,286047001.4,N
1606162775.8,286047003.2,Y
1606162795.7,286047003.9,P
1606162815.5,286047003.8,N
1606162865.4,286047004.7,E
1606162875.3,286047002.9,N
1606162895.1,286047002.1,P
1606162915.9,286047002.5,P
1606162935.7,286047002.2,Y
1606162955.5,286047000.8,P
1606162975.4,286047000.0,N
1606162995.2,286047001.1,N
1606163015.0,286047001.5,N
1606163015.9,286047001.5,N
1606163035.8,286047003.8,Y
1606163055.6,286047002.2,P
1606163075.4,286047000.6,N
1606163095.3,286047000.9,N
1606163115.1,286047000.8,N
1606163116.0,286047000.8,N
1606163135.8,286047000.8,N
1606163185.7,286047000.6,E
1606163195.6,286046999.9,N
1606163215.5,286047000.6,P
1606163235.3,286046998.4,P
1606163255.1,286047000.4,N
1606163275.9,286047002.4,N
1606163295.7,286046999.9,N
1606163315.5,286047000.9,N
1606163335.4,286047000.9,N
1606163355.2,286047002.4,N
1606163375.0,286047001.4,N
1606163375.9,286047001.4,N
1606163395.8,286047004.0,Y
1606163415.6,286047001.8,P
1606163435.4,286047002.3,P
1606163455.3,286047000.5,N
1606163475.1,286047000.4,N
1606163476.0,286047000.4,N
1606163495.8,286047000.1,N
1606163515.7,286047000.4,N
1606163535.5,286047000.5,N
1606163555.3,286046999.7,N
1606163575.2,286047000.6,N
1606163595.9,286046999.8,N
1606163615.7,286047002.7,Y
1606163635.6,286046998.6,P
1606163655.4,286046996.8,P
1606163675.2,286046997.5,N
1606163695.1,286046996.7,N
1606163696.0,286046996.7,N
1606163715.8,286046996.5,N
1606163735.6,286046997.5,N
1606163755.5,286046996.1,Y
1606163775.3,286046997.7,P
1606163795.1,286046997.2,P
1606163815.9,286046995.0,P
1606163835.7,286046995.0,Y
1606163855.5,286047000.7,P
1606163875.4,286046999.1,N
1606163895.2,286046999.4,N
1606163915.0,286046997.8,N
1606163915.9,286046997.8,N
1606163935.8,286046999.5,N
1606163955.6,286046997.7,N
1606163975.4,286046996.5,N
1606163995.3,286046995.0,Y
1606164015.1,286046999.0,P
1606164035.8,286046999.3,N
1606164055.7,286046997.6,P
1606164075.5,286046995.6,Y
1606164095.3,286046997.6,P
1606164115.2,286046996.1,P
1606164135.0,286046994.2,P
1606164135.9,286046994.2,Y
1606164155.7,286046999.6,P
1606164175.6,286046997.2,N
1606164195.4,286046997.4,N
1606164215.2,286046996.1,Y
1606164235.1,286046996.6,P
1606164236.0,286046996.6,P
1606164255.8,286046997.7,P
1606164275.7,286046993.4,Y
1606164295.5,286046996.5,P
1606164315.3,286046998.8,P
1606164335.2,286046997.2,N
1606164355.9,286046996.7,Y
1606164375.7,286047001.2,P
1606164395.6,286047000.8,N
1606164415.4,286046999.5,N
1606164435.2,286047001.2,N
1606164455.1,286046997.8,N
1606164456.0,286046997.8,N
1606164475.8,286046996.8,N
1606164495.6,286046995.3,N
1606164515.5,286046995.7,N
1606164535.3,286046995.6,N
1606164555.1,286046993.8,N
1606164575.9,286046996.3,N
1606164595.7,286046992.1,Y
1606164615.5,286046996.0,P
1606164635.4,286046993.9,P
1606164655.2,286046994.2,P
1606164675.0,286046992.2,Y
1606164675.9,286046992.2,P
1606164725.8,286046997.6,E
1606164735.7,286046997.2,N
1606164755.5,286046999.3,P
1606164775.4,286046999.2,N
1606164795.2,286046997.4,N
1606164815.0,286046999.5,N
1606164815.9,286046999.5,N
1606164835.8,286046999.0,N
1606164855.6,286046996.5,Y
1606164875.4,286046998.1,P
1606164895.3,286046997.2,P
1606164915.1,286046997.1,P
1606164935.8,286046995.1,Y
1606164955.7,286046998.8,P
1606164975.5,286046999.4,N
1606164995.3,286046996.5,P
1606165015.2,286046997.7,N
1606165035.0,286046996.7,Y
1606165035.9,286046996.7,P
1606165055.7,286046998.8,N
1606165075.6,286046998.9,N
1606165095.4,286046996.8,Y
1606165115.2,286046999.2,P
1606165135.1,286046996.6,P
1606165136.0,286046996.6,P
1606165155.8,286046997.8,N
1606165175.6,286046997.2,N
1606165195.5,286046997.2,Y
